Location: Unspecified
(52.4292°N, 19.3359°E)
Time: 01:10:08
(UTC+02:00)

Altair - Pass Details

Date: 26 May 2024
Orbit: 1502 x 1682 km, 47.2° (Epoch: 20 June)

Event Time Altitude Azimuth Distance (km) Brightness Sun altitude
Rises 16:46:30 0° 287° (WNW) 4,927 11.0 33.9°
Reaches altitude 10° 16:50:28 10° 274° (W) 3,945 11.0 33.3°
Maximum altitude 16:57:50 24° 227° (SW) 2,993 10.2 32.2°
Drops below altitude 10° 17:05:11 10° 179° (S) 3,914 9.8 31.0°
Sets 17:09:08 0° 167° (SSE) 4,880 10.1 30.4°
